Wind_Speed
13 12 12 12 12 10 9 9 9 9 11 11 12 12 13 15 16 17 16 18 18 19 20 20 20 21 22 20 23 20 21 23 25 36 34 37 39 39 40 39 39 39 38
12 12 12 10 9 9 9 9 8 9 10 10 11 12 13 15 16 18 19 19 19 20 20 20 21 22 22 24 22 20 22 22 25 36 35 36 35 38 41 41 39 37 38
11 11 10 9 8 8 8 7 7 8 9 10 10 12 12 14 17 18 18 18 16 18 19 18 19 20 23 23 21 24 23 23 26 31 40 35 35 36 42 40 41 41 37
10 9 9 8 7 7 6 6 7 8 8 9 10 11 10 11 17 19 20 19 16 18 16 18 18 20 22 21 24 23 24 29 29 30 34 35 35 36 35 40 44 39 41
9 9 8 7 5 5 5 5 6 7 7 8 9 9 10 9 17 19 20 17 15 16 17 16 18 18 17 20 20 25 28 29 29 31 30 33 32 35 34 39 41 48 47
9 7 6 5 4 4 4 5 5 6 6 6 7 9 9 8 13 15 17 16 15 16 16 18 20 17 20 19 23 25 28 31 30 30 31 31 34 36 38 40 41 37 23
9 7 5 4 3 3 3 4 5 5 4 5 5 6 7 7 10 14 17 16 15 14 15 19 19 19 19 24 26 28 27 26 26 30 32 30 37 37 41 44 42 41 42
8 6 4 2 1 1 2 3 3 3 3 4 4 5 8 7 9 12 16 18 15 13 17 19 20 19 22 26 31 30 30 28 27 26 29 34 36 41 37 38 42 44 44
8 5 3 3 2 0 1 2 3 3 3 4 6 8 8 9 9 12 15 17 14 16 18 19 18 20 24 30 33 32 31 31 28 30 32 35 32 32 32 35 36 34 29
8 6 5 3 2 2 3 4 3 4 5 6 7 7 9 10 11 12 14 15 16 20 20 19 17 24 27 32 32 29 29 32 36 41 44 40 34 32 30 28 32 31 32
7 6 5 4 3 5 5 6 5 5 6 7 7 8 7 10 13 12 15 17 18 21 22 22 22 26 31 32 29 26 27 35 39 35 34 36 37 33 32 32 33 34 35
7 7 7 6 6 6 7 6 7 7 7 7 7 9 8 10 13 13 14 16 20 21 23 23 25 31 32 30 26 25 29 30 31 30 30 31 33 36 38 39 40 36 36
9 9 8 8 8 8 7 7 7 6 7 7 8 11 14 15 16 13 16 18 21 23 24 25 29 31 29 28 24 28 27 28 26 27 28 30 32 37 39 39 39 38 36
11 10 9 9 9 8 8 8 9 7 8 9 9 12 15 18 18 20 23 26 26 27 25 28 33 31 27 25 29 25 25 25 25 27 29 32 33 33 35 34 38 38 36
11 10 9 9 9 9 10 10 11 11 10 11 12 13 15 19 20 19 21 25 26 27 30 34 34 27 25 23 23 24 24 24 25 25 27 31 32 33 34 34 34 35 30
11 11 10 11 11 11 11 12 9 10 11 11 12 14 16 15 18 19 21 24 25 24 27 29 25 23 22 24 25 26 24 24 25 27 27 27 30 32 33 35 32 30 29
13 11 12 13 13 12 12 12 13 11 10 10 11 11 13 17 18 20 23 23 21 24 24 26 23 22 24 24 24 25 27 26 28 27 27 27 28 30 31 31 31 30 29
15 15 15 13 12 13 12 12 12 13 16 18 12 12 12 14 17 21 20 24 32 25 24 24 25 25 25 25 25 26 27 27 27 28 29 27 27 28 29 29 28 29 30
15 15 13 13 13 12 12 12 12 12 15 18 20 17 17 18 19 16 20 26 26 27 27 26 25 27 27 26 26 27 27 27 28 29 29 27 27 27 29 29 29 30 30
16 15 13 13 13 12 11 12 13 14 16 18 20 21 23 23 26 30 30 27 27 28 28 27 26 26 27 27 27 27 27 27 27 27 29 28 27 27 28 29 29 28 29
16 15 15 15 15 13 13 14 15 16 17 19 20 20 16 20 25 26 26 26 27 27 29 28 27 27 27 27 27 27 27 28 28 28 28 28 27 28 29 28 29 27 28
17 14 13 12 12 13 14 14 15 17 18 19 21 22 18 21 23 24 25 27 27 27 27 28 29 29 30 29 29 28 28 29 30 28 27 28 28 28 29 28 28 26 26
17 14 13 14 14 13 14 15 16 16 18 20 21 23 23 23 24 25 26 26 26 27 26 26 28 30 30 30 30 31 31 33 33 30 29 30 29 29 28 28 28 24 24
15 14 14 14 13 14 15 16 17 17 20 21 22 23 24 25 26 25 25 25 25 25 24 27 29 32 32 33 34 34 34 34 32 32 30 29 31 31 29 28 26 23 24
15 14 13 13 13 15 16 18 19 19 20 21 23 25 26 27 27 26 25 24 23 23 26 29 31 32 33 33 34 33 31 29 31 31 30 32 33 33 31 30 24 23 23
14 13 12 13 14 15 17 18 19 20 22 24 26 27 27 27 27 26 25 23 22 24 28 29 31 33 33 33 34 35 31 29 31 32 30 30 29 27 25 25 24 23 21
Wind_Direction
110 109 103 95 89 83 72 64 54 42 42 46 47 48 52 42 39 37 32 24 22 16 13 9 6 4 0 358 353 352 343 332 312 312 318 321 323 322 320 319 317 314 311
114 106 94 88 82 78 69 58 53 54 53 49 53 55 56 42 39 35 26 18 13 6 4 2 359 358 357 350 352 345 333 327 321 310 316 319 319 320 317 317 317 313 312
114 108 101 93 82 70 62 58 63 58 57 55 49 50 52 37 32 29 22 15 10 359 0 357 353 353 346 348 346 336 329 327 319 309 309 315 317 322 321 318 316 315 314
119 113 104 92 81 77 69 62 55 52 50 49 50 48 53 33 26 19 12 11 11 355 353 349 351 349 347 344 339 336 334 326 321 314 311 315 319 322 320 320 318 316 314
130 121 109 97 88 79 66 61 57 55 50 50 49 50 46 17 19 13 4 8 1 349 349 351 346 340 341 340 338 337 331 327 322 315 313 316 321 325 324 321 314 314 311
139 127 120 113 99 78 69 61 54 53 50 47 42 33 27 21 13 9 359 3 354 352 349 338 338 340 337 341 335 333 329 324 319 319 317 317 317 320 317 315 312 314 312
145 138 140 114 102 86 74 54 39 36 39 34 23 16 15 22 2 0 357 358 354 350 340 339 338 337 340 334 332 329 324 322 319 317 313 313 312 315 316 314 312 308 302
156 154 134 121 137 89 46 30 15 18 27 359 349 350 352 1 356 352 349 351 351 343 339 338 337 335 335 334 334 331 327 323 320 316 311 311 311 312 313 308 306 302 300
167 162 167 184 189 319 323 343 335 341 315 317 332 338 339 339 350 347 343 347 339 337 338 337 334 334 333 334 336 329 324 320 321 319 315 315 316 316 316 315 311 308 305
181 184 197 206 218 242 283 295 307 295 302 318 321 325 332 330 336 341 340 341 338 338 334 332 329 333 332 333 331 329 323 323 327 325 328 329 326 323 322 315 307 304 301
189 201 216 232 242 260 275 283 285 293 301 309 317 326 332 319 324 334 341 342 337 333 330 328 326 330 328 328 326 325 320 324 322 325 322 323 324 323 320 314 307 298 294
199 213 230 238 242 257 270 273 277 287 297 307 312 319 319 321 330 333 331 333 334 332 326 319 320 323 324 324 322 323 324 321 324 319 318 318 320 319 318 316 314 309 303
214 225 229 238 250 261 269 272 276 272 287 299 307 316 321 327 327 325 329 333 331 327 321 316 318 322 322 322 326 326 323 322 318 317 314 313 316 314 315 317 319 316 313
216 219 230 242 253 265 265 265 266 266 273 281 295 306 310 317 325 338 338 330 329 325 321 317 320 321 323 320 321 320 319 316 312 310 310 312 316 319 318 319 320 320 318
216 225 235 249 256 258 264 263 268 270 275 283 291 303 303 310 325 324 323 324 323 320 319 316 320 324 319 317 315 313 315 314 312 313 312 314 317 320 319 321 321 320 319
222 230 237 243 249 258 263 268 262 277 277 278 285 287 289 298 309 315 319 322 323 322 319 320 318 316 314 316 316 314 314 313 313 313 312 313 315 317 318 320 322 322 320
228 229 234 240 244 249 255 267 284 284 285 290 290 295 289 301 310 315 321 324 322 323 323 321 314 313 312 312 312 311 310 311 312 311 311 312 313 314 318 318 320 321 321
226 229 236 242 246 251 258 267 281 296 306 311 314 302 306 307 313 320 326 322 329 334 328 324 316 314 312 311 310 310 309 310 311 312 312 311 312 313 314 316 317 320 321
232 236 241 244 250 257 263 274 283 289 293 302 313 319 326 323 321 320 325 330 330 326 326 321 318 313 310 310 309 309 309 309 309 309 310 309 310 312 311 312 312 318 321
237 238 241 247 250 258 267 276 281 286 292 299 310 321 326 332 327 322 326 331 330 325 322 316 312 309 308 308 309 309 310 309 308 307 308 308 309 309 308 309 311 316 321
241 243 245 248 251 259 268 274 284 287 294 304 308 316 313 309 304 314 321 323 322 321 317 313 310 309 308 308 308 308 306 304 303 303 305 305 308 307 306 306 307 311 318
239 243 250 256 257 258 269 279 285 291 297 300 305 311 309 307 316 318 317 318 321 318 317 316 313 311 312 309 309 305 301 299 300 301 302 303 305 304 303 304 307 311 318
238 243 249 257 262 266 274 284 290 296 299 300 303 307 315 316 316 315 315 318 319 319 321 319 318 319 323 320 318 313 303 302 304 301 298 302 302 301 299 301 304 311 318
241 247 253 258 263 273 283 292 295 294 296 299 306 310 312 314 314 314 316 318 318 319 323 324 324 324 324 324 322 321 318 315 313 304 301 298 304 305 299 297 298 309 314
242 249 257 264 272 281 290 292 293 296 300 303 307 311 313 313 313 314 315 317 317 319 323 326 327 328 328 328 328 329 323 320 319 318 313 307 299 303 297 295 294 303 312
247 257 266 273 281 288 289 291 295 300 302 308 311 311 311 310 310 312 314 315 315 318 323 327 330 332 331 332 336 340 342 335 320 312 304 295 290 290 293 294 297 302 308
Height
870 872 872 873 873 876 878 879 879 881 880 878 878 877 877 876 876 875 875 873 871 869 867 865 864 861 861 857 854 852 851 850 839 822 823 816 809 802 797 792 786 781 776
871 873 874 876 877 877 878 880 882 880 880 880 878 877 878 877 875 873 873 875 872 871 868 866 866 862 860 859 855 852 849 846 841 823 821 813 808 802 794 785 780 775 768
873 874 875 877 878 880 881 882 881 880 879 879 879 878 877 877 876 875 874 873 874 874 871 867 864 860 859 856 853 853 849 842 838 830 814 811 804 797 786 780 774 766 762
874 875 877 878 880 881 881 881 881 880 880 880 878 880 878 876 877 876 876 873 873 872 872 869 866 862 859 858 853 850 846 840 833 829 819 807 801 794 789 776 760 761 752
876 876 876 878 881 880 881 881 881 878 880 879 879 879 880 880 877 876 876 875 874 873 870 868 866 864 858 856 851 847 842 836 831 826 816 805 797 790 785 777 766 752 742
875 876 877 876 878 879 880 880 881 878 880 880 879 879 880 880 878 879 878 874 873 870 870 868 865 859 856 853 850 846 843 837 831 825 815 806 797 793 783 776 766 753 733
873 875 877 874 878 879 878 878 878 879 879 879 880 880 879 879 879 879 877 875 871 871 869 865 861 856 853 850 846 842 839 836 830 823 814 807 796 791 783 770 762 755 742
875 875 874 875 878 878 876 876 877 877 877 881 881 881 878 876 875 878 878 874 870 869 865 861 857 853 850 847 840 835 832 827 823 818 813 804 796 787 782 772 761 750 735
872 872 873 876 877 876 876 875 876 876 878 877 878 879 877 876 874 876 876 871 868 864 860 856 853 850 847 843 834 829 825 820 816 811 804 796 788 782 776 767 755 747 731
871 872 873 873 873 873 874 875 870 876 877 875 877 878 875 873 874 874 873 868 864 859 857 854 851 846 841 837 832 827 820 813 806 796 788 780 777 772 768 764 756 746 734
869 871 871 871 869 871 872 873 872 874 874 874 875 874 873 873 873 871 869 865 861 857 854 849 845 842 838 834 829 824 819 811 802 794 786 777 769 764 760 755 750 743 729
866 868 867 868 870 871 870 870 870 871 872 873 872 872 872 871 869 867 865 862 859 855 850 846 842 837 832 828 823 819 814 807 800 792 784 776 768 759 752 745 737 730 724
864 866 867 868 868 867 867 868 869 871 871 871 870 869 867 866 865 864 860 857 854 851 847 842 837 832 827 821 817 813 809 803 797 790 782 774 768 759 749 739 729 720 711
864 865 865 864 864 865 866 867 868 869 869 868 867 865 864 862 860 857 855 852 849 845 840 835 831 826 821 816 810 807 804 800 795 788 779 771 762 754 746 738 727 714 703
860 861 861 861 863 864 865 865 865 865 865 864 863 863 862 859 857 857 854 850 845 841 835 830 824 819 814 810 807 803 799 794 789 783 776 767 759 751 743 735 726 714 703
856 857 859 860 861 862 862 862 862 863 862 862 861 860 858 857 855 853 850 846 841 836 830 825 820 816 811 807 802 797 794 790 785 779 772 766 758 750 741 731 724 715 704
854 855 856 858 858 858 859 859 858 858 858 858 858 857 855 853 851 848 844 840 836 832 828 822 817 812 807 803 799 794 789 785 781 775 768 762 755 748 740 730 722 714 702
851 853 853 854 855 855 856 856 856 855 853 852 852 851 850 848 845 842 839 834 828 824 822 817 811 807 803 799 795 790 785 780 776 771 764 758 752 746 737 729 722 713 703
847 848 850 850 851 852 852 852 852 851 850 848 846 845 844 842 839 836 834 829 824 819 815 811 807 803 799 795 791 786 782 776 771 766 759 753 748 742 734 728 719 712 703
844 845 846 847 847 848 849 849 848 847 846 844 842 840 838 836 832 828 826 823 820 816 811 808 804 800 796 791 786 781 777 772 766 761 754 749 743 738 732 724 717 709 701
840 841 842 843 844 845 845 845 844 843 841 839 837 836 836 833 829 825 821 818 816 812 808 804 800 795 791 786 781 776 772 766 761 756 750 744 739 733 727 721 714 707 700
836 837 838 839 840 840 840 840 839 838 836 834 832 830 829 826 823 820 816 813 810 807 804 799 795 790 785 781 776 771 766 760 754 750 745 740 734 729 723 717 711 704 698
833 835 836 836 836 836 836 835 835 833 832 830 828 825 822 820 817 814 810 807 804 800 797 793 788 783 778 774 769 765 759 753 748 744 739 734 729 723 718 713 707 701 696
829 830 831 832 832 832 832 831 830 829 828 825 823 820 817 814 811 808 804 801 798 794 790 786 782 777 772 767 762 757 751 745 741 736 733 728 722 717 713 709 704 699 694
825 827 828 829 829 829 828 828 826 825 823 820 818 815 812 808 805 802 799 796 792 788 785 780 775 770 765 760 755 749 743 738 733 729 725 721 716 712 708 704 700 695 692
822 823 824 825 825 826 825 824 822 820 818 815 812 809 806 803 799 796 793 790 787 783 779 774 768 764 759 753 748 742 736 731 726 724 721 716 711 707 704 700 696 692 688